Location: Washington
(38.8950°N, 77.0370°W)
Time: 05:14:12
(UTC-04:00)

Daily predictions for brighter satellites

Satellite Brightness Start Highest point End
(mag) Time Altitude Azimuth Time Altitude Azimuth Time Altitude Azimuth
CENTAUR R/B 4.2 02:56:30 28° NNE 02:56:30 28° NNE 02:59:37 10° NNE
SL-16 R/B 4.1 03:33:25 28° N 03:33:25 28° N 03:36:07 10° N
Cosmos 2322 Rocket 3.7 03:58:57 29° N 03:58:57 29° N 04:01:50 10° NNE
SL-16 R/B 3.6 04:04:10 31° N 04:04:10 31° N 04:07:17 10° NNE
COSMOS 2428 4.0 04:09:54 32° ESE 04:10:41 33° ESE 04:15:44 10° NE
Resurs 1-4 Rocket 3.7 04:05:48 10° N 04:08:11 26° N 04:08:11 26° N
CZ-2D R/B 3.6 04:07:56 10° N 04:10:47 30° NNW 04:10:47 30° NNW
Okean O Rocket 3.4 04:12:30 10° NE 04:16:18 27° E 04:16:33 27° ESE
DELTA 2 R/B (1) 4.1 04:21:58 51° ESE 04:21:58 51° ESE 04:26:17 10° E
FALCON 9 R/B 4.4 04:17:39 49° WSW 04:22:14 68° S 05:08:13 10° ESE
Lacrosse 4 Rocket 3.8 04:26:46 16° ESE 04:26:46 16° ESE 04:27:48 10° SE
Cosmos 2184 Rocket 4.1 04:19:48 10° N 04:26:02 74° E 04:28:01 45° SSE
Cosmos 2360 Rocket 2.4 04:27:51 63° N 04:27:51 63° N 04:32:40 10° NNE
Cosmos 1455 Rocket 4.4 04:23:51 10° N 04:26:43 36° NNE 04:26:43 36° NNE
ADEOS II 3.3 04:30:01 10° NNE 04:34:55 39° E 04:37:45 22° SSE
ADEOS Rocket 3.7 04:33:34 10° N 04:37:11 33° NNW 04:37:11 33° NNW
Cosmos 1340 4.3 04:44:18 28° NNE 04:44:18 28° NNE 04:46:13 10° N
CENTAUR R/B 4.1 04:43:40 20° NW 04:44:36 21° NNW 04:49:39 10° NNE
ATLAS 5 CENTAUR R/B 4.5 04:40:57 10° N 04:45:49 25° NE 04:51:00 10° E
USA 215 3.6 04:41:24 10° ESE 04:47:51 63° NE 04:54:19 10° NW
SL-08 ROCKET BODY 4.5 04:44:20 10° NNW 04:49:21 53° WNW 04:49:21 53° WNW
Cosmos 2208 Rocket 4.2 04:48:51 52° S 04:50:09 74° ESE 04:55:36 10° NNE
Cosmos 1536 Rocket 3.6 04:53:01 79° NNE 04:53:01 79° NNE 04:57:16 10° N
USA 229 DEB 4.4 04:50:45 24° S 04:54:46 50° ESE 05:01:24 10° NE
USA 229 4.4 04:50:50 23° S 04:54:52 50° ESE 05:01:29 10° NE
PAYLOAD B 4.5 04:51:26 10° NNE 04:57:03 69° ESE 05:00:22 25° S
Cosmos 2333 Rocket 3.5 04:53:37 12° SSE 04:58:22 37° ESE 05:03:35 10° NE
Cosmos 2154 Rocket 4.1 04:53:48 10° N 05:00:00 72° E 05:06:11 10° SSE
Cosmos 1743 3.5 04:57:54 10° N 05:01:41 50° E 05:05:25 10° SSE
Cosmos 2322 4.1 05:04:46 43° WNW 05:05:08 43° WNW 05:10:36 10° N
PSLV R/B 3.8 05:02:38 10° NNE 05:06:59 69° ESE 05:08:52 33° S
MTI 4.3 05:06:50 57° E 05:06:59 58° ENE 05:10:15 10° N
CZ-4B R/B 2.8 05:04:54 10° N 05:08:01 63° N 05:08:01 63° N
EO 1 Del DPAF 3.1 05:13:26 18° SSE 05:16:15 89° W 05:20:07 10° NNW
Cosmos 1610 Rocket 4.5 05:12:27 10° NNW 05:18:38 60° W 05:24:50 10° S
Nadezhda 1 Rocket 4.1 05:16:39 37° SW 05:18:41 51° W 05:24:35 10° N
Meteor 1-12 Rocket 4.4 05:14:22 10° NNW 05:19:45 46° W 05:22:23 28° SSW
Cosmos 2181 Rocket 4.3 05:13:47 10° S 05:19:54 69° E 05:26:10 10° NNE
Cosmos 2333 4.2 05:21:50 34° SW 05:24:19 66° WNW 05:30:01 10° NNE
Hubble Space Telescope 3.3 05:24:40 10° S 05:25:25 10° SSE 05:26:09 10° SSE
Cosmos 1570 Rocket 4.3 05:24:16 38° WSW 05:25:39 47° WNW 05:30:42 10° N
Meteor PRIRODA 4.2 05:22:10 10° NNE 05:25:53 58° E 05:29:23 11° S
Cosmos 1844 4.0 05:20:23 10° NNW 05:26:10 71° ENE 05:31:49 10° SSE
Cosmos 468 Rocket 4.3 05:22:13 11° S 05:27:03 66° ESE 05:32:15 10° NNE
Meteor 1-13 Rocket 4.1 05:23:36 19° SSW 05:27:42 73° W 05:33:19 10° N
Cosmos 1898 Rocket 4.1 05:24:07 10° N 05:29:16 58° ENE 05:34:21 10° SSE
BREEZE M DEB (TANK) 4.2 05:20:58 10° WNW 05:32:59 51° NNE 05:36:47 10° E
CZ-4B DEB 4.2 05:27:55 10° N 05:33:25 63° WNW 05:37:41 17° SSW
MOS 1 Rocket 4.3 05:29:38 10° NNW 05:33:31 26° WNW 05:33:35 26° WNW
CZ-4B R/B 3.2 05:28:26 10° N 05:33:59 62° WNW 05:38:17 17° SSW
Tiangong 2 0.9 05:34:35 63° W 05:35:00 79° SSW 05:38:07 10° ESE
GPS 2-04 Rocket1 4.2 05:36:09 20° SSW 05:37:38 25° SSE 05:40:51 10° ESE
Cosmos 2341 Rocket 3.9 05:34:30 10° N 05:40:44 73° W 05:46:54 10° S
Cosmos 1238 Rocket 3.1 05:42:00 30° NW 05:42:00 30° NW 05:44:08 10° NNW
IRS-1C Rocket 4.4 05:37:54 10° N 05:42:54 46° WNW 05:46:22 19° SW
Cosmos 1980 3.9 05:38:20 10° SSW 05:43:57 74° ESE 05:49:36 10° NNE
ERS-2 2.1 05:40:58 10° NNE 05:44:41 86° ESE 05:48:22 10° SSW
IRAS Rocket 4.4 05:41:49 10° N 05:47:12 53° WNW 05:52:15 12° SW
CZ-2C R/B 4.0 05:46:38 10° S 05:51:01 43° W 05:55:21 10° NNW
Okean O Rocket 2.7 05:48:52 10° NNW 05:52:33 26° WNW 05:54:01 22° W
Cosmos 2219 Rocket 2.2 05:48:29 15° SW 05:52:59 58° WNW 05:58:31 10° NNE
Cosmos 1763 Rocket 4.0 05:49:37 10° S 05:54:35 60° ESE 05:59:37 10° NNE
COSMOS 2428 3.5 05:51:56 21° WSW 05:54:53 33° WNW 06:00:00 10° N
COSMO-SKYMED 1 4.2 05:51:18 10° SE 05:55:18 38° ENE 05:59:19 10° N
Cosmos 1025 Rocket 3.0 05:53:24 10° SSW 05:57:44 67° W 06:02:08 10° N
Cosmos 1937 Rocket 3.7 05:53:13 10° NNW 05:58:34 77° ENE 06:03:51 10° SSE
Meteor 2-9 Rocket 4.1 05:53:35 10° NNW 05:59:15 74° W 06:04:43 10° S
NOSS 0 Rocket 3.9 05:54:05 10° SSW 06:00:16 77° WNW 06:06:27 10° NNE
Cosmos 1726 Rocket 4.2 05:55:55 10° N 06:00:20 60° E 06:04:44 10° SSE
Meteor 1-23 Rocket 4.2 05:55:06 10° SSW 06:00:54 75° W 06:06:42 10° N
GENESIS II 4.2 05:57:23 13° SW 06:00:54 80° WNW 06:05:01 10° NNE
Cosmos 1844 Rocket 2.9 05:56:18 10° NW 06:01:33 43° WSW 06:06:46 10° S
Lacrosse 4 Rocket 3.1 06:03:25 15° SW 06:03:25 15° SW 06:04:58 10° SSW
Cosmos 1437 2.7 05:59:27 10° S 06:02:43 84° W 06:06:00 10° N
Okean-O 2.6 06:02:05 10° N 06:06:30 68° WNW 06:10:53 10° SSW
DELTA 2 R/B (1) 3.6 06:02:43 16° W 06:07:14 83° N 06:12:48 10° E
SJ-6F 4.4 06:03:23 10° NNE 06:07:28 87° WNW 06:11:33 10° SSW
Cosmos 1892 Rocket 3.7 06:04:06 10° S 06:08:25 78° E 06:12:48 10° N
Cosmos 841 Rocket 3.9 06:03:22 10° S 06:08:28 66° ESE 06:13:34 10° NNE
USA 116 4.1 06:07:26 10° S 06:11:29 51° W 06:16:07 10° NNW
Cosmos 2360 Rocket 4.1 06:09:52 10° WNW 06:11:58 12° NW 06:14:04 10° NNW
NOAA 6 4.1 06:06:58 10° NNE 06:12:07 83° ESE 06:17:13 10° SSW
Cosmos 2285 Rocket 4.2 06:06:04 10° SW 06:12:22 56° WNW 06:18:42 10° N
EXPRESS MD2 3.5 06:07:27 10° SW 06:12:36 60° SE 06:15:24 10° ENE
ADEOS II 3.2 06:10:12 10° NNW 06:14:24 25° WNW 06:18:36 10° WSW
Cosmos 2278 Rocket 2.2 06:11:35 10° NNW 06:17:17 80° WSW 06:22:55 10° SSE
Cosmos 2298 Rocket 4.1 06:12:42 10° NNW 06:17:56 57° WSW 06:23:07 10° S
Cosmos 1814 Rocket 4.1 06:14:10 10° SSW 06:19:16 55° WNW 06:24:20 10° N
Cosmos 2237 Rocket 2.3 06:15:19 10° SW 06:20:54 60° WNW 06:26:33 10° NNE
Cosmos 1959 Rocket 4.4 06:15:32 10° NNW 06:21:35 68° W 06:27:40 10° S
Cosmos 1441 Rocket 3.4 06:17:54 10° S 06:21:51 81° E 06:25:51 10° NNE
Aureole 2 Rocket 3.1 06:20:59 10° SW 06:24:24 36° WNW 06:27:34 10° N
Cosmos 1515 3.7 06:22:49 10° S 06:26:40 82° W 06:30:32 10° N
Meteor 2-4 Rocket 4.3 06:22:01 10° SW 06:27:03 34° WNW 06:32:00 10° N
Meteor 1-15 Rocket 4.4 06:21:36 10° NNW 06:27:25 59° W 06:33:13 10° S
Cosmos 405 Rocket 3.4 06:24:21 10° SW 06:28:07 36° WNW 06:31:51 10° N
Cosmos 371 Rocket 3.3 06:23:27 10° SSW 06:28:18 85° WNW 06:33:13 10° NNE
Cosmos 1666 4.1 06:26:57 10° NW 06:29:46 19° W 06:32:33 10° SW
ATLAS 5 CENTAUR R/B 2.5 06:24:57 10° NW 06:31:00 68° WSW 06:37:32 10° SSE
USA 215 3.9 06:25:07 10° S 06:31:01 35° SW 06:36:57 10° WNW
Okean 2 4.0 06:27:58 10° SW 06:31:48 36° WNW 06:35:42 10° N
Cosmos 332 Rocket 3.9 06:27:12 10° SSW 06:32:02 59° WNW 06:36:53 10° N
Cosmos 2297 4.4 06:26:43 10° NNW 06:32:27 62° ENE 06:38:05 10° SE
Cosmos 2366 rocket 4.1 06:28:47 10° NNW 06:35:03 61° W 06:41:16 10° S
Cosmos 1346 2.8 06:33:49 10° SSW 06:36:39 75° W 06:39:30 10° N
CZ-3A R/B 1.9 06:36:33 10° NW 06:37:03 11° NNW 06:37:37 10° N
Cosmos 2333 Rocket 3.1 06:37:40 10° WSW 06:42:39 30° WNW 06:47:41 10° N
